Time,TemperatureF,DewpointF,PressureIn,WindDirection,WindDirectionDegrees,WindSpeedMPH,WindSpeedGustMPH,Humidity,HourlyPrecipIn,Conditions,Clouds,dailyrainin,SolarRadiationWatts/m^2,SoftwareType,DateUTC
2013-01-29 00:02:00,30.0,29.0,-100.00,East,88,3.0,8.0,95,0.00,,,0.09,0.000000,,2013-01-29 06:02:00,
2013-01-29 00:11:00,30.0,29.0,-100.00,East,88,3.0,8.0,95,0.00,,,0.09,0.000000,,2013-01-29 06:11:00,
2013-01-29 00:32:00,31.0,30.0,-100.00,East,79,3.0,8.0,96,0.00,,,0.09,0.000000,,2013-01-29 06:32:00,
2013-01-29 00:42:00,31.0,30.0,-100.00,East,79,3.0,8.0,96,0.00,,,0.09,0.000000,,2013-01-29 06:42:00,
2013-01-29 00:52:00,31.0,30.0,-100.00,East,79,3.0,8.0,96,0.00,,,0.09,0.000000,,2013-01-29 06:52:00,
2013-01-29 01:01:00,31.0,30.0,-100.00,East,79,3.0,8.0,96,0.00,,,0.09,0.000000,,2013-01-29 07:01:00,
2013-01-29 01:11:00,31.0,30.0,-100.00,East,79,3.0,8.0,96,0.00,,,0.09,0.000000,,2013-01-29 07:11:00,
2013-01-29 01:32:00,31.0,30.0,-100.00,North,354,1.0,9.0,97,0.00,,,0.09,0.000000,,2013-01-29 07:32:00,
2013-01-29 01:42:00,31.0,30.0,-100.00,North,354,1.0,9.0,97,0.00,,,0.09,0.000000,,2013-01-29 07:42:00,
2013-01-29 01:52:00,31.0,30.0,-100.00,North,354,1.0,9.0,97,0.00,,,0.09,0.000000,,2013-01-29 07:52:00,
2013-01-29 02:02:00,31.0,30.0,-100.00,North,354,1.0,9.0,97,0.00,,,0.09,0.000000,,2013-01-29 08:02:00,
2013-01-29 02:11:00,31.0,30.0,-100.00,North,354,1.0,9.0,97,0.00,,,0.09,0.000000,,2013-01-29 08:11:00,
2013-01-29 02:42:00,31.0,30.0,-100.00,NNE,33,1.0,7.0,96,0.00,,,0.09,0.000000,,2013-01-29 08:42:00,
2013-01-29 02:52:00,31.0,30.0,-100.00,NNE,33,1.0,7.0,96,0.00,,,0.09,0.000000,,2013-01-29 08:52:00,
2013-01-29 03:01:00,31.0,30.0,-100.00,NNE,33,1.0,7.0,96,0.00,,,0.09,0.000000,,2013-01-29 09:01:00,
2013-01-29 03:11:00,31.0,30.0,-100.00,NNE,33,1.0,7.0,96,0.00,,,0.09,0.000000,,2013-01-29 09:11:00,
2013-01-29 03:42:00,31.0,30.0,-100.00,NNE,31,2.0,6.0,96,0.00,,,0.09,0.000000,,2013-01-29 09:42:00,
2013-01-29 03:52:00,31.0,30.0,-100.00,NNE,31,2.0,6.0,96,0.00,,,0.09,0.000000,,2013-01-29 09:52:00,
2013-01-29 04:01:00,31.0,30.0,-100.00,NNE,31,2.0,6.0,96,0.00,,,0.09,0.000000,,2013-01-29 10:01:00,
2013-01-29 04:11:00,31.0,30.0,-100.00,NNE,31,2.0,6.0,96,0.00,,,0.09,0.000000,,2013-01-29 10:11:00,
2013-01-29 04:42:00,31.0,30.0,-100.00,NW,322,1.0,6.0,97,0.00,,,0.09,0.000000,,2013-01-29 10:42:00,
2013-01-29 04:52:00,31.0,30.0,-100.00,NW,322,1.0,6.0,97,0.00,,,0.09,0.000000,,2013-01-29 10:52:00,
2013-01-29 05:02:00,31.0,30.0,-100.00,NW,322,1.0,6.0,97,0.00,,,0.09,0.000000,,2013-01-29 11:02:00,
2013-01-29 05:11:00,31.0,30.0,-100.00,NW,322,1.0,6.0,97,0.00,,,0.09,0.000000,,2013-01-29 11:11:00,
2013-01-29 05:32:00,31.0,30.0,-100.00,NNW,329,1.0,5.0,97,0.00,,,0.09,0.000000,,2013-01-29 11:32:00,
2013-01-29 05:42:00,31.0,30.0,-100.00,NNW,329,1.0,5.0,97,0.00,,,0.09,0.000000,,2013-01-29 11:42:00,
2013-01-29 05:53:00,31.0,30.0,-100.00,NNW,329,1.0,5.0,97,0.00,,,0.09,0.000000,,2013-01-29 11:53:00,
2013-01-29 06:02:00,31.0,30.0,-100.00,NNW,329,1.0,5.0,97,0.00,,,0.09,0.000000,,2013-01-29 12:02:00,
2013-01-29 06:12:00,31.0,30.0,-100.00,NNW,329,1.0,5.0,97,0.00,,,0.09,0.000000,,2013-01-29 12:12:00,
2013-01-29 06:33:00,31.0,30.0,-100.00,WNW,292,1.0,3.0,97,0.00,,,0.09,0.000000,,2013-01-29 12:33:00,
2013-01-29 06:43:00,31.0,30.0,-100.00,WNW,292,1.0,3.0,97,0.00,,,0.09,0.000000,,2013-01-29 12:43:00,
2013-01-29 06:53:00,31.0,30.0,-100.00,WNW,292,1.0,3.0,97,0.00,,,0.09,0.000000,,2013-01-29 12:53:00,
2013-01-29 07:02:00,31.0,30.0,-100.00,WNW,292,1.0,3.0,97,0.00,,,0.09,0.000000,,2013-01-29 13:02:00,
2013-01-29 07:12:00,31.0,30.0,-100.00,WNW,292,1.0,3.0,97,0.00,,,0.09,0.000000,,2013-01-29 13:12:00,
2013-01-29 07:43:00,31.0,30.0,-100.00,West,275,0.0,3.0,97,0.00,,,0.09,0.000000,,2013-01-29 13:43:00,
2013-01-29 07:52:00,31.0,30.0,-100.00,West,275,0.0,3.0,97,0.00,,,0.09,0.000000,,2013-01-29 13:52:00,
2013-01-29 08:02:00,31.0,30.0,-100.00,West,275,0.0,3.0,97,0.00,,,0.09,0.000000,,2013-01-29 14:02:00,
2013-01-29 08:12:00,31.0,30.0,-100.00,West,275,0.0,3.0,97,0.00,,,0.09,0.000000,,2013-01-29 14:12:00,
2013-01-29 08:43:00,31.0,30.0,-100.00,SW,224,0.0,3.0,97,0.00,,,0.09,8.000000,,2013-01-29 14:43:00,
2013-01-29 08:53:00,31.0,30.0,-100.00,SW,224,0.0,3.0,97,0.00,,,0.09,8.000000,,2013-01-29 14:53:00,
2013-01-29 09:02:00,31.0,30.0,-100.00,SW,224,0.0,3.0,97,0.00,,,0.09,8.000000,,2013-01-29 15:02:00,
2013-01-29 09:12:00,31.0,30.0,-100.00,SW,224,0.0,3.0,97,0.00,,,0.09,8.000000,,2013-01-29 15:12:00,
2013-01-29 09:33:00,32.0,30.0,-100.00,WNW,299,4.0,8.0,94,0.00,,,0.09,31.000000,,2013-01-29 15:33:00,
2013-01-29 09:43:00,32.0,30.0,-100.00,WNW,299,4.0,8.0,94,0.00,,,0.09,31.000000,,2013-01-29 15:43:00,
2013-01-29 09:53:00,32.0,30.0,-100.00,WNW,299,4.0,8.0,94,0.00,,,0.09,31.000000,,2013-01-29 15:53:00,
2013-01-29 10:02:00,32.0,30.0,-100.00,WNW,299,4.0,8.0,94,0.00,,,0.09,31.000000,,2013-01-29 16:02:00,
2013-01-29 10:12:00,32.0,30.0,-100.00,WNW,299,4.0,8.0,94,0.00,,,0.09,31.000000,,2013-01-29 16:12:00,
2013-01-29 10:43:00,33.0,31.0,-100.00,NW,307,5.0,10.0,91,0.00,,,0.09,72.000000,,2013-01-29 16:43:00,
2013-01-29 10:53:00,33.0,31.0,-100.00,NW,307,5.0,10.0,91,0.00,,,0.09,72.000000,,2013-01-29 16:53:00,
2013-01-29 11:03:00,33.0,31.0,-100.00,NW,307,5.0,10.0,91,0.00,,,0.09,72.000000,,2013-01-29 17:03:00,
2013-01-29 11:12:00,33.0,31.0,-100.00,NW,307,5.0,10.0,91,0.00,,,0.09,72.000000,,2013-01-29 17:12:00,
2013-01-29 11:42:00,34.0,30.0,-100.00,NW,320,6.0,14.0,84,0.04,,,0.13,121.000000,,2013-01-29 17:42:00,
2013-01-29 11:52:00,34.0,30.0,-100.00,NW,320,6.0,14.0,84,0.04,,,0.13,121.000000,,2013-01-29 17:52:00,
2013-01-29 12:04:00,34.0,30.0,-100.00,NW,320,6.0,14.0,84,0.04,,,0.13,121.000000,,2013-01-29 18:04:00,
2013-01-29 12:12:00,34.0,30.0,-100.00,NW,320,6.0,14.0,84,0.04,,,0.13,121.000000,,2013-01-29 18:12:00,
2013-01-29 12:33:00,35.0,30.0,-100.00,NW,318,6.0,12.0,81,0.01,,,0.14,187.000000,,2013-01-29 18:33:00,
2013-01-29 12:42:00,35.0,30.0,-100.00,NW,318,6.0,12.0,81,0.01,,,0.14,187.000000,,2013-01-29 18:42:00,
2013-01-29 12:52:00,35.0,30.0,-100.00,NW,318,6.0,12.0,81,0.01,,,0.14,187.000000,,2013-01-29 18:52:00,
2013-01-29 13:02:00,35.0,30.0,-100.00,NW,318,6.0,12.0,81,0.01,,,0.14,187.000000,,2013-01-29 19:02:00,
2013-01-29 13:12:00,35.0,30.0,-100.00,NW,318,6.0,12.0,81,0.01,,,0.14,187.000000,,2013-01-29 19:12:00,
2013-01-29 13:42:00,35.0,29.0,-100.00,NW,322,6.0,12.0,80,0.02,,,0.16,162.000000,,2013-01-29 19:42:00,
2013-01-29 13:52:00,35.0,29.0,-100.00,NW,322,6.0,12.0,80,0.02,,,0.16,162.000000,,2013-01-29 19:52:00,
2013-01-29 14:02:00,35.0,29.0,-100.00,NW,322,6.0,12.0,80,0.02,,,0.16,162.000000,,2013-01-29 20:02:00,
2013-01-29 14:12:00,35.0,29.0,-100.00,NW,322,6.0,12.0,80,0.02,,,0.16,162.000000,,2013-01-29 20:12:00,
2013-01-29 14:42:00,35.0,29.0,-100.00,NNW,328,6.0,13.0,77,0.02,,,0.18,132.000000,,2013-01-29 20:42:00,
2013-01-29 14:53:00,35.0,29.0,-100.00,NNW,328,6.0,13.0,77,0.02,,,0.18,132.000000,,2013-01-29 20:53:00,
2013-01-29 15:03:00,35.0,29.0,-100.00,NNW,328,6.0,13.0,77,0.02,,,0.18,132.000000,,2013-01-29 21:03:00,
2013-01-29 15:12:00,35.0,29.0,-100.00,NNW,328,6.0,13.0,77,0.02,,,0.18,132.000000,,2013-01-29 21:12:00,
2013-01-29 15:42:00,34.0,28.0,-100.00,NW,323,6.0,15.0,78,0.00,,,0.12,85.000000,,2013-01-29 21:42:00,
2013-01-29 15:53:00,34.0,28.0,-100.00,NW,323,6.0,15.0,78,0.00,,,0.12,85.000000,,2013-01-29 21:53:00,
2013-01-29 16:02:00,34.0,28.0,-100.00,NW,323,6.0,15.0,78,0.00,,,0.12,85.000000,,2013-01-29 22:02:00,
2013-01-29 16:12:00,34.0,28.0,-100.00,NW,323,6.0,15.0,78,0.00,,,0.12,85.000000,,2013-01-29 22:12:00,
2013-01-29 16:42:00,32.0,26.0,-100.00,NNW,329,8.0,15.0,79,0.00,,,0.10,38.000000,,2013-01-29 22:42:00,
2013-01-29 16:53:00,32.0,26.0,-100.00,NNW,329,8.0,15.0,79,0.00,,,0.10,38.000000,,2013-01-29 22:53:00,
2013-01-29 17:02:00,32.0,26.0,-100.00,NNW,329,8.0,15.0,79,0.00,,,0.10,38.000000,,2013-01-29 23:02:00,
2013-01-29 17:12:00,32.0,26.0,-100.00,NNW,329,8.0,15.0,79,0.00,,,0.10,38.000000,,2013-01-29 23:12:00,
2013-01-29 17:33:00,30.0,24.0,-100.00,NNW,335,10.0,19.0,79,0.00,,,0.09,11.000000,,2013-01-29 23:33:00,
2013-01-29 17:42:00,30.0,24.0,-100.00,NNW,335,10.0,19.0,79,0.00,,,0.09,11.000000,,2013-01-29 23:42:00,
2013-01-29 17:53:00,30.0,24.0,-100.00,NNW,335,10.0,19.0,79,0.00,,,0.09,11.000000,,2013-01-29 23:53:00,
2013-01-29 18:03:00,30.0,24.0,-100.00,NNW,335,10.0,19.0,79,0.00,,,0.09,11.000000,,2013-01-30 00:03:00,
2013-01-29 18:12:00,30.0,24.0,-100.00,NNW,335,10.0,19.0,79,0.00,,,0.09,11.000000,,2013-01-30 00:12:00,
2013-01-29 18:33:00,29.0,23.0,-100.00,NNW,341,9.0,18.0,77,0.00,,,0.09,0.000000,,2013-01-30 00:33:00,
2013-01-29 18:43:00,29.0,23.0,-100.00,NNW,341,9.0,18.0,77,0.00,,,0.09,0.000000,,2013-01-30 00:43:00,
2013-01-29 18:53:00,29.0,23.0,-100.00,NNW,341,9.0,18.0,77,0.00,,,0.09,0.000000,,2013-01-30 00:53:00,
2013-01-29 19:02:00,29.0,23.0,-100.00,NNW,341,9.0,18.0,77,0.00,,,0.09,0.000000,,2013-01-30 01:02:00,
2013-01-29 19:12:00,29.0,23.0,-100.00,NNW,341,9.0,18.0,77,0.00,,,0.09,0.000000,,2013-01-30 01:12:00,
2013-01-29 19:43:00,29.0,22.0,-100.00,NNW,343,7.0,18.0,74,0.00,,,0.09,0.000000,,2013-01-30 01:43:00,
2013-01-29 19:52:00,29.0,22.0,-100.00,NNW,343,7.0,18.0,74,0.00,,,0.09,0.000000,,2013-01-30 01:52:00,
2013-01-29 20:02:00,29.0,22.0,-100.00,NNW,343,7.0,18.0,74,0.00,,,0.09,0.000000,,2013-01-30 02:02:00,
2013-01-29 20:12:00,29.0,22.0,-100.00,NNW,343,7.0,18.0,74,0.00,,,0.09,0.000000,,2013-01-30 02:12:00,
2013-01-29 20:33:00,29.0,21.0,-100.00,North,1,6.0,14.0,73,0.00,,,0.09,0.000000,,2013-01-30 02:33:00,
2013-01-29 20:42:00,29.0,21.0,-100.00,North,1,6.0,14.0,73,0.00,,,0.09,0.000000,,2013-01-30 02:42:00,
2013-01-29 20:53:00,29.0,21.0,-100.00,North,1,6.0,14.0,73,0.00,,,0.09,0.000000,,2013-01-30 02:53:00,
2013-01-29 21:03:00,29.0,21.0,-100.00,North,1,6.0,14.0,73,0.00,,,0.09,0.000000,,2013-01-30 03:03:00,
2013-01-29 21:11:00,29.0,21.0,-100.00,North,1,6.0,14.0,73,0.00,,,0.09,0.000000,,2013-01-30 03:11:00,
2013-01-29 21:32:00,28.0,20.0,-100.00,NNW,327,7.0,18.0,71,0.00,,,0.09,0.000000,,2013-01-30 03:32:00,
2013-01-29 21:42:00,28.0,20.0,-100.00,NNW,327,7.0,18.0,71,0.00,,,0.09,0.000000,,2013-01-30 03:42:00,
2013-01-29 21:52:00,28.0,20.0,-100.00,NNW,327,7.0,18.0,71,0.00,,,0.09,0.000000,,2013-01-30 03:52:00,
2013-01-29 22:02:00,28.0,20.0,-100.00,NNW,327,7.0,18.0,71,0.00,,,0.09,0.000000,,2013-01-30 04:02:00,
2013-01-29 22:12:00,28.0,20.0,-100.00,NNW,327,7.0,18.0,71,0.00,,,0.09,0.000000,,2013-01-30 04:12:00,
2013-01-29 22:32:00,28.0,20.0,-100.00,NNW,337,6.0,15.0,71,0.00,,,0.09,0.000000,,2013-01-30 04:32:00,
2013-01-29 22:42:00,28.0,20.0,-100.00,NNW,337,6.0,15.0,71,0.00,,,0.09,0.000000,,2013-01-30 04:42:00,
2013-01-29 22:52:00,28.0,20.0,-100.00,NNW,337,6.0,15.0,71,0.00,,,0.09,0.000000,,2013-01-30 04:52:00,
2013-01-29 23:03:00,28.0,20.0,-100.00,NNW,337,6.0,15.0,71,0.00,,,0.09,0.000000,,2013-01-30 05:03:00,
2013-01-29 23:12:00,28.0,20.0,-100.00,NNW,337,6.0,15.0,71,0.00,,,0.09,0.000000,,2013-01-30 05:12:00,
2013-01-29 23:32:00,26.0,18.0,-100.00,NW,323,6.0,17.0,70,0.00,,,0.09,0.000000,,2013-01-30 05:32:00,
2013-01-29 23:43:00,26.0,18.0,-100.00,NW,323,6.0,17.0,70,0.00,,,0.09,0.000000,,2013-01-30 05:43:00,
2013-01-29 23:52:00,26.0,18.0,-100.00,NW,323,6.0,17.0,70,0.00,,,0.09,0.000000,,2013-01-30 05:52:00,